Location: Chircca
(13.7944°S, 72.0608°W)
Time: 05:36:22
(UTC+00:00)

USA 215 - Pass Details

Date: 14 July 2020
Orbit: 1102 x 1106 km, 123.0° (Epoch: 08 August)

Event Time Altitude Azimuth Distance (km) Brightness Sun altitude
Exits shadow 00:24:10 38° 57° (ENE) 1,612 3.8 -25.7°
Maximum altitude 00:26:49 70° 128° (SE) 1,169 3.1 -26.3°
Drops below altitude 10° 00:33:20 10° 210° (SSW) 2,970 5.6 -27.8°
Sets 00:35:50 0° 212° (SSW) 3,932 6.3 -28.4°
